User: anonymous   Login
Location: Donzy-le-Pr�
(47.3659°N, 3.1107°E)
Time: 23:59:45
(UTC+00:00)
Language:

CSL-04 Debris - Orbit

View from above orbital plane
View from above orbital plane
View from above satellite
View from above satellite

Ground track
Ground track

The orbit data is extracted from the following two-line orbital elements,

1 25733U 99025D   21129.51552309  .00000073  00000-0  59238-4 0  9991
2 25733  98.9123 164.8593 0016086 114.3945 245.8910 14.16457657135855
Epoch (UTC): 09 May 2021 12:22:21
Eccentricity: 0.0016086
inclination: 98.9123°
perigee height: 826 km
apogee height: 849 km
right ascension of ascending node: 164.8593°
argument of perigee: 114.3945°
revolutions per day: 14.16457657
mean anomaly at epoch: 245.8910°
orbit number at epoch: 13585

The dashed part of the orbit path shows where the satellite is in the earth's shadow,  

DLR